SCP
0 0 0 0 -0 -0 -0 -0 0 0 0 0 0 0 0 0 0 -0 -0 -0 0 0 0 0 0 0 0 0 0 0 0 0 0 0 0 0 0 0 0 0 0 0 0
0 0 0 0 -0 -0 -0 -0 0 0 0 0 0 0 0 0 0 -0 -0 -0 0 0 0 0 0 0 0 0 0 0 0 0 0 0 0 0 0 0 0 0 0 0 0
0 0 0 0 -0 -0 -0 0 0 0 0 0 0 0 0 0 0 0 0 -0 0 0 0 0 0 0 0 0 0 0 0 0 0 0 0 0 0 0 0 0 0 0 0
0 0 0 0 0 0 0 0 0 0 0 0 0 0 0 0 0 0 0 0 0 0 0 0 0 0 0 0 0 0 0 0 0 0 0 0 0 0 0 0 0 0 0
0 0 0 0 0 0 0 0 0 0 0 0 0 0 0 0 0 0 0 0 0 0 0 0 0 0 0 0 0 0 0 0 0 0 0 0 0 0 0 0 0 0 0
0 0 0 0 0 0 0 0 0 0 0 0 0 0 0 0 0 0 0 0 0 0 0 0 0 0 0 0 0 0 0 0 0 0 0 0 0 0 0 0 0 0 0
0 0 0 0 0 0 0 0 0 0 0 0 0 0 0 0 0 0 0 0 0 0 0 0 0 0 0 0 0 0 0 0 0 0 0 0 0 0 0 0 0 0 0
0 0 0 0 0 0 0 0 0 0 0 0 0 0 0 0 0 0 0 0 0 0 0 0 0 0 0 0 0 0 0 0 0 0 0 0 0 0 0 0 0 0 0
0 0 0 0 0 0 0 0 0 0 0 0 0 0 0 0 0 0 0 0 0 0 0 0 0 0 0 0 0 0 0 0 0 0 0 0 0 0 0 0 0 0 0
0 0 0 0 0 0 0 0 0 0 0 0 0 0 0 0 0 0 0 0 0 0 0 0 0 0 0 0 0 0 0 0 0 0 0 0 0 0 0 0 0 0 0
0 0 0 0 0 0 0 0 0 0 0 0 0 0 0 0 0 0 0 0 0 0 0 0 0 0 0 0 0 0 0 0 0 0 0 0 0 0 0 0 0 0 0
0 0 0 0 0 0 0 0 0 0 0 0 0 0 0 0 0 0 0 0 0 0 0 0 0 0 0 0 0 0 0 0 0 0 0 0 0 0 0 0 0 0 0
0 0 0 0 0 0 0 0 0 0 0 0 0 0 0 0 0 0 0 0 0 0 0 0 0 0 0 0 0 0 0 0 0 0 0 0 0 0 0 0 0 -0 -0
0 0 0 0 0 0 0 0 0 0 0 0 0 0 0 0 0 0 0 0 0 -0 0 0 0 0 0 0 0 0 0 0 0 0 0 0 0 0 0 0 0 -0 -0
0 0 0 0 0 0 0 0 0 0 0 0 0 0 0 0 0 0 0 0 0 -0 -0 0 0 0 0 0 0 0 0 0 0 -0 -0 0 0 0 0 0 -0 -0 -0
0 0 0 0 0 0 0 0 0 0 0 0 0 0 0 0 0 0 0 0 0 0 -0 0 0 0 0 0 0 0 0 0 0 -0 -0 -0 0 0 0 -0 -0 -0 -0
0 0 0 0 0 0 0 0 0 0 0 0 0 0 0 0 0 0 0 0 0 0 0 -0 0 0 0 0 0 0 0 0 -0 -0 -0 0 0 0 0 0 -0 -0 -0
0 0 0 0 0 0 0 0 0 0 0 0 0 0 0 0 0 -0 -0 -0 -0 -0 0 -0 -0 -0 -0 0 0 -0 -0 -0 -0 -0 -0 -0 0 0 0 0 0 0 0
0 0 0 0 0 0 0 0 0 0 0 0 0 0 0 0 0 0 0 -0 -0 -0 -0 -0 -0 -0 -0 -0 -0 -0 -0 -0 -0 -0 -0 -0 0 0 0 0 0 0 0
-0 -0 -0 -0 0 0 0 0 0 0 0 0 0 0 0 0 0 0 0 0 0 0 0 0 0 -0 -0 -0 -0 -0 -0 -0 -0 -0 -0 -0 -0 -0 -0 -0 0 0 0
-0 -0 -0 0 0 0 0 0 0 0 0 0 0 0 0 0 0 0 0 0 0 0 0 0 0 0 0 -0 -0 -0 -0 -0 -0 -0 -0 -0 -0 -0 -0 -0 0 0 0
0 0 0 0 0 0 0 0 0 0 0 0 0 0 0 0 0 0 0 0 0 0 0 0 0 0 0 0 0 -0 -0 -0 -0 -0 -0 -0 -0 -0 -0 -0 0 0 0
0 0 0 0 0 0 0 0 0 0 0 0 0 0 0 0 0 0 0 0 0 0 0 0 0 0 0 0 0 0 0 -0 -0 -0 -0 -0 -0 -0 0 0 0 0 0
0 0 0 0 0 0 0 0 0 0 0 0 0 0 0 0 0 0 0 0 0 0 0 0 0 0 0 0 0 0 0 0 0 0 0 -0 -0 0 0 0 0 0 0
0 0 0 0 0 0 0 0 0 0 0 0 0 0 0 0 0 0 0 0 0 0 0 0 0 0 0 0 0 0 0 0 0 0 0 -0 0 0 0 0 0 0 0
0 0 0 0 0 0 0 0 0 0 0 0 0 0 0 0 0 0 0 0 0 0 0 0 0 0 0 0 0 0 0 0 0 0 0 0 0 0 0 0 0 0 0
Wind_Speed
3 3 2 2 2 2 2 2 2 1 1 1 2 4 4 4 5 4 4 12 12 11 12 12 12 11 11 10 10 10 9 9 9 8 8 8 7 7 7 6 5 5 5
4 4 3 3 3 3 3 3 3 2 2 1 2 3 5 5 5 4 4 7 11 11 11 12 12 12 11 11 10 10 10 9 9 8 8 7 7 7 7 6 6 5 5
5 4 4 3 3 3 3 2 2 1 1 1 1 3 4 4 5 5 5 3 5 9 11 11 11 11 12 11 11 10 9 9 9 9 8 7 7 6 6 6 6 5 5
6 4 4 3 3 3 3 3 2 1 1 1 1 1 2 3 5 5 4 4 4 4 7 11 11 11 11 11 11 11 10 9 9 9 9 8 7 7 7 6 6 5 5
6 5 4 3 3 3 3 3 2 2 2 2 2 1 2 3 4 5 5 6 5 4 4 8 11 11 12 12 12 11 11 10 10 10 10 9 9 8 7 7 7 6 6
5 5 3 4 4 3 2 2 3 2 2 2 2 1 1 2 3 4 5 4 5 6 5 5 5 7 12 11 11 11 11 11 11 10 10 10 9 9 8 8 7 7 6
5 5 4 3 4 3 4 4 3 3 2 2 2 1 2 1 2 3 3 3 5 6 5 5 4 4 5 10 11 11 12 12 11 11 10 10 9 9 8 8 8 7 7
5 5 4 4 4 3 4 4 3 2 2 2 3 2 1 3 2 2 2 4 5 4 5 7 5 5 4 3 6 11 11 12 12 11 11 10 10 9 9 8 8 7 7
5 5 5 4 4 4 4 4 4 4 3 2 2 4 3 3 2 2 2 3 3 3 4 4 6 6 6 4 4 8 11 11 11 11 11 10 9 9 9 9 9 8 8
5 5 5 5 5 4 4 5 4 4 4 3 2 2 3 4 3 1 2 1 3 4 4 4 5 5 5 4 5 7 9 9 10 10 10 9 9 8 8 8 8 8 8
5 5 6 5 5 4 5 5 4 4 4 4 3 2 2 1 2 3 2 2 1 2 3 3 3 3 4 4 4 6 8 8 8 9 9 9 8 8 8 8 7 7 7
3 4 5 5 5 4 5 5 5 5 4 4 3 3 3 3 3 3 3 2 2 2 1 2 2 3 3 4 6 8 9 8 8 7 8 7 7 7 7 7 7 6 6
3 4 5 4 4 4 5 4 4 5 5 4 4 4 3 3 3 3 3 2 2 2 1 1 2 2 3 2 3 7 7 7 7 7 7 7 7 7 7 7 6 6 6
4 4 5 5 5 5 5 4 4 4 4 4 5 4 3 3 3 4 4 4 2 1 1 2 0 1 2 2 3 5 4 7 7 7 7 8 8 7 7 7 6 6 6
4 4 5 5 5 4 4 4 3 4 4 4 4 4 4 3 3 3 4 4 5 3 3 3 2 2 2 2 3 4 4 7 8 8 8 8 8 8 8 8 7 7 7
4 4 4 5 5 4 4 4 3 4 4 3 3 3 3 3 3 3 3 3 4 4 4 3 2 2 3 3 4 3 4 8 8 8 8 8 8 9 8 8 8 7 7
4 4 4 4 4 4 4 4 4 4 4 3 3 4 4 3 3 3 3 3 3 3 3 2 1 2 2 3 3 3 3 3 5 9 9 9 9 9 9 8 7 7 6
3 4 4 4 4 4 4 4 4 4 4 4 4 3 3 3 3 3 3 3 3 4 4 4 2 2 2 4 4 4 3 3 3 8 9 9 9 9 8 8 7 7 6
3 2 3 4 4 4 4 4 4 4 4 4 4 4 4 3 4 3 3 3 3 3 3 4 3 2 2 3 3 3 3 2 3 5 7 8 9 9 8 7 7 6 6
2 2 3 3 4 3 3 3 3 3 3 3 3 3 3 4 4 4 3 4 3 3 3 4 4 3 2 2 3 4 3 2 2 3 4 5 7 8 8 7 8 7 6
3 2 2 2 2 2 3 3 3 3 3 2 2 1 2 3 4 3 3 3 4 4 4 4 4 3 3 4 4 4 4 3 1 2 3 3 3 3 4 6 7 7 7
1 1 1 2 1 1 2 4 3 2 2 2 1 1 1 1 2 2 3 4 5 5 6 5 4 5 5 5 4 5 5 5 3 3 4 2 2 3 2 3 5 7 7
2 2 1 1 2 1 1 2 2 2 2 2 2 1 1 0 0 0 0 0 2 3 6 6 6 7 6 7 7 7 6 5 4 4 4 3 2 3 2 4 7 7 7
2 2 2 2 2 1 1 2 2 2 1 1 1 1 1 0 0 0 1 1 1 0 2 3 5 5 5 6 7 7 7 5 3 2 3 3 3 3 2 2 6 8 8
2 2 2 2 2 1 1 2 2 2 1 1 0 1 1 1 0 2 3 2 1 1 2 4 4 4 6 7 7 6 6 5 3 3 2 3 3 2 1 2 4 8 8
2 2 2 1 2 2 1 2 2 2 1 1 1 1 2 1 2 3 2 3 2 1 1 3 4 4 4 5 7 6 6 6 4 3 3 4 3 3 2 1 2 3 4
Wind_Direction
163 164 165 169 178 177 177 182 197 212 211 183 166 159 158 156 156 161 172 175 175 176 176 177 176 175 175 176 174 173 174 174 173 174 175 172 170 172 171 170 169 171 170
165 166 165 170 181 187 183 177 186 188 191 161 149 151 156 157 161 169 177 181 182 181 183 184 183 183 184 185 184 184 185 184 183 182 183 182 182 185 184 182 184 184 184
166 168 167 175 188 185 176 168 183 171 172 157 159 162 161 162 168 177 179 177 184 191 191 192 191 192 194 193 193 191 193 193 191 190 189 188 188 188 186 186 186 183 180
169 165 168 181 190 174 166 167 172 158 171 173 183 174 162 167 178 180 180 182 186 192 199 197 195 196 200 200 200 198 200 198 197 194 189 189 192 192 191 191 193 192 193
172 167 173 188 180 171 172 180 168 163 173 184 194 191 169 174 185 185 189 192 192 190 196 203 202 201 205 207 207 205 202 202 201 199 200 200 201 200 199 200 201 200 201
173 167 175 185 168 164 175 172 168 168 171 177 186 184 195 188 189 191 199 197 198 200 199 205 205 210 211 212 211 211 208 208 207 206 207 208 206 203 203 206 205 204 206
177 172 177 176 170 172 180 172 155 157 175 147 98 24 344 294 215 210 199 192 202 206 200 204 205 207 215 218 217 217 216 214 212 210 208 208 210 208 208 210 208 207 209
187 186 179 179 178 172 178 174 157 154 184 158 138 121 342 335 307 237 203 197 199 199 206 210 207 205 210 207 216 218 218 219 216 213 211 211 211 209 208 209 207 203 202
194 190 187 182 183 179 185 190 175 165 184 208 167 154 165 219 275 304 240 214 198 193 203 205 205 205 207 204 212 223 222 218 216 217 214 210 208 206 206 207 204 202 203
201 193 189 188 190 187 188 200 187 176 168 195 214 201 184 168 167 261 304 260 213 204 204 209 207 203 200 199 204 206 211 212 213 216 212 208 206 205 205 202 199 196 194
212 202 195 191 192 192 195 202 190 186 180 186 191 187 189 184 169 167 238 272 271 229 207 205 200 196 195 200 204 205 204 207 209 207 205 204 204 200 194 191 190 187 184
222 213 200 196 195 193 196 202 199 195 196 195 193 183 177 179 192 178 202 224 233 259 218 196 197 196 194 197 204 197 194 196 196 197 197 194 188 184 181 182 183 179 174
219 217 206 201 201 203 202 199 200 204 199 198 203 204 199 199 185 172 174 199 217 246 230 214 212 192 187 183 195 186 184 182 184 186 181 174 169 165 161 159 159 158 157
217 213 204 206 204 203 206 197 199 206 201 207 215 210 207 212 196 186 177 172 194 243 236 224 217 185 168 173 170 163 163 171 172 169 165 160 155 150 148 144 140 137 136
219 213 206 204 205 201 200 192 203 209 200 210 220 220 222 222 207 204 190 176 176 201 228 212 197 185 164 149 159 157 159 162 163 162 159 153 147 145 141 137 135 133 132
223 202 204 204 202 200 202 195 202 206 199 209 211 217 229 230 219 208 197 196 188 186 211 205 194 176 165 161 150 147 151 150 151 151 151 149 148 143 141 141 140 138 137
210 200 198 198 199 201 204 203 210 203 202 214 222 218 230 226 224 222 207 201 200 179 202 217 163 146 144 153 143 135 139 148 148 147 151 151 149 147 147 146 144 144 144
209 203 190 190 197 199 197 201 211 206 200 208 218 216 232 235 230 228 220 216 210 193 183 195 185 168 166 169 157 152 154 152 148 150 152 151 148 148 149 150 150 151 152
201 197 189 195 201 203 202 204 207 208 213 217 216 216 229 225 232 226 223 220 217 207 179 175 187 172 161 159 143 141 132 122 141 144 147 147 149 149 150 153 153 153 153
195 204 205 204 205 204 200 202 199 202 213 223 222 219 225 223 224 226 226 219 205 191 176 169 170 164 155 152 144 151 145 139 152 147 143 143 149 152 155 158 160 160 159
209 210 206 207 205 198 203 198 202 205 206 216 222 222 229 225 219 219 218 211 198 188 179 173 173 170 171 168 177 170 165 152 143 158 142 155 152 157 168 171 169 165 160
179 162 168 179 193 213 196 189 190 195 191 185 207 261 269 259 228 219 212 211 201 192 189 181 186 188 191 183 170 169 162 159 182 184 158 172 162 176 182 178 178 171 166
159 144 155 146 138 152 178 176 183 168 177 178 189 226 258 279 321 153 134 204 214 198 190 188 188 194 188 184 174 176 179 179 180 166 147 171 175 192 195 181 180 179 177
154 153 144 135 134 133 129 123 123 118 126 158 190 201 188 249 342 101 119 88 65 73 183 178 187 191 186 181 180 177 170 150 113 129 143 161 175 188 184 179 188 187 188
156 154 150 148 149 153 137 138 123 115 123 129 96 81 112 116 52 119 120 125 108 48 71 106 127 143 153 155 156 143 148 152 158 177 165 149 157 147 154 198 203 196 194
165 154 149 152 162 174 171 147 126 126 141 145 58 57 72 92 109 120 133 142 150 176 114 98 91 93 116 137 149 165 168 166 155 176 180 152 150 139 154 217 205 198 200